sat.trackr.live / text

‹ back to catalog

ONEWEB-0397

NORAD 50477 · 2021-132J

PAYLOAD ACTIVE UNKNOWN

§ Identity

Operator
Country
UK
Launch date
2021-12-27
Launch site
TYMSC
Launch vehicle
Mass (kg)
RCS (m²)

Purposes: comms

External: N2YO · Heavens-Above · Gunter

§ Orbital elements

Epoch: 2026-09-19T22:51:09.335232Z

Period
109.20 min
Inclination
87.9164°
Eccentricity
0.0002164
Mean motion
13.18685860 rev/d
Perigee alt
1,188.1 km
Apogee alt
1,191.4 km
Semi-major
7,567.9 km
B*
1.6718e-4
RAAN
316.6285°
Arg perigee
96.8841°
Mean anomaly
263.2538°
Rev number
23,410

§ Raw data

ONEWEB-03971 50477U 21132J   26262.95219138  .00000079  00000+0  16718-3 0  99992 50477  87.9164 316.6285 0002164  96.8841 263.2538 13.18685860234105

JSON: /api/v1/satellites/50477 · /tle

For live sub-satellite position, see the globe view (requires WebGL).

§ Visibility from observer

Set your observer location to see the next 7 days of passes ≥ 10°. The values pass through the URL so the page stays shareable.

No JS? Fill the form by hand. The geolocation button needs JavaScript.